EZS84BA GMMX-LSGG

Flight info

Callsign EZS84BA
Flight time 2h 22m
Altitude 38000
Route OBOGA UG850 BERUM N860 VLC L34 CASIM N608 MATEX Z475 OSLAP DCT GEANT DCT NAKIS DCT ROMAM Z16 LTP N871 GIPNO DCT BELUS
Aircraft A320/M-SDE3FGHIRWY/LB1

Departure

Time 2026-05-08 12:12
Airport Marrakesh Menara Airport (GMMX)

Arrival

Time 2026-05-08 14:34
Airport Geneva International Airport (LSGG)
Time Latitude Longitude Altitude Speed Heading
2026-05-08 11:48 31.60306 -8.02592 1550 ft 0 kts 184°
2026-05-08 12:06 31.60311 -8.02592 1549 ft 4 kts 184°
2026-05-08 12:06 31.60338 -8.02589 1549 ft 4 kts 187°
2026-05-08 12:07 31.60365 -8.02585 1549 ft 4 kts 188°
2026-05-08 12:07 31.60392 -8.02581 1549 ft 4 kts 184°
2026-05-08 12:07 31.60419 -8.02579 1549 ft 4 kts 180°
2026-05-08 12:07 31.60421 -8.02579 1549 ft 0 kts 180°
2026-05-08 12:09 31.60418 -8.02575 1549 ft 1 kts 138°
2026-05-08 12:09 31.60420 -8.02557 1549 ft 5 kts 87°
2026-05-08 12:09 31.60418 -8.02507 1549 ft 9 kts 95°
2026-05-08 12:10 31.60410 -8.02414 1549 ft 13 kts 96°
2026-05-08 12:10 31.60402 -8.02317 1549 ft 11 kts 96°
2026-05-08 12:10 31.60394 -8.02233 1549 ft 10 kts 96°
2026-05-08 12:10 31.60419 -8.02172 1549 ft 11 kts 24°
2026-05-08 12:11 31.60522 -8.02156 1549 ft 16 kts
2026-05-08 12:11 31.60572 -8.02299 1549 ft 40 kts 276°
2026-05-08 12:11 31.60628 -8.02927 1547 ft 112 kts 276°
2026-05-08 12:11 31.60726 -8.04065 1548 ft 165 kts 275°
2026-05-08 12:12 31.60831 -8.05406 2198 ft 163 kts 277°
2026-05-08 12:12 31.60934 -8.06714 2948 ft 164 kts 277°
2026-05-08 12:12 31.61063 -8.08122 3321 ft 183 kts 277°
2026-05-08 12:12 31.61436 -8.09639 3562 ft 208 kts 305°
2026-05-08 12:13 31.62626 -8.10710 3986 ft 233 kts 342°
2026-05-08 12:13 31.64313 -8.10650 4509 ft 260 kts 20°
2026-05-08 12:13 31.65874 -8.09471 5254 ft 273 kts 44°
2026-05-08 12:13 31.67099 -8.07723 6123 ft 280 kts 53°
2026-05-08 12:14 31.68289 -8.05885 6949 ft 286 kts 54°
2026-05-08 12:14 31.69493 -8.03995 7781 ft 291 kts 54°
2026-05-08 12:14 31.70714 -8.02071 8599 ft 297 kts 54°
2026-05-08 12:14 31.71962 -8.00101 9399 ft 303 kts 54°
2026-05-08 12:15 31.73232 -7.98094 10134 ft 311 kts 54°
2026-05-08 12:15 31.74570 -7.95973 10425 ft 335 kts 54°
2026-05-08 12:15 31.76007 -7.93696 10672 ft 358 kts 54°
2026-05-08 12:15 31.77522 -7.91303 11154 ft 370 kts 54°
2026-05-08 12:16 31.79075 -7.88851 11823 ft 376 kts 54°
2026-05-08 12:16 31.80652 -7.86362 12536 ft 382 kts 54°
2026-05-08 12:16 31.82247 -7.83846 13218 ft 387 kts 54°
2026-05-08 12:16 31.83889 -7.81309 13906 ft 392 kts 50°
2026-05-08 12:17 31.85727 -7.78906 14482 ft 398 kts 47°
2026-05-08 12:17 31.87611 -7.76473 15082 ft 403 kts 47°
2026-05-08 12:17 31.89483 -7.74056 15671 ft 408 kts 47°
2026-05-08 12:17 31.91406 -7.71573 16298 ft 412 kts 47°
2026-05-08 12:18 31.93345 -7.69067 16894 ft 417 kts 47°
2026-05-08 12:18 31.95306 -7.66523 17480 ft 421 kts 47°
2026-05-08 12:18 31.97291 -7.63943 18053 ft 426 kts 47°
2026-05-08 12:18 31.99291 -7.61346 18588 ft 431 kts 47°
2026-05-08 12:19 32.01314 -7.58722 19073 ft 435 kts 47°
2026-05-08 12:19 32.03364 -7.56064 19575 ft 440 kts 47°
2026-05-08 12:19 32.05436 -7.53375 20067 ft 445 kts 47°
2026-05-08 12:19 32.06854 -7.51532 20409 ft 448 kts 47°
2026-05-08 12:20 32.08933 -7.48827 20886 ft 453 kts 47°
2026-05-08 12:20 32.11058 -7.46050 21365 ft 458 kts 47°
2026-05-08 12:20 32.13197 -7.43246 21857 ft 462 kts 47°
2026-05-08 12:20 32.15358 -7.40416 22322 ft 467 kts 47°
2026-05-08 12:21 32.17542 -7.37551 22771 ft 471 kts 47°
2026-05-08 12:21 32.19747 -7.34660 23214 ft 475 kts 46°
2026-05-08 12:21 32.21972 -7.31744 23618 ft 480 kts 46°
2026-05-08 12:21 32.24210 -7.28807 23975 ft 483 kts 46°
2026-05-08 12:22 32.26467 -7.25837 24332 ft 487 kts 46°
2026-05-08 12:22 32.28734 -7.22852 24675 ft 490 kts 46°
2026-05-08 12:22 32.31024 -7.19842 25009 ft 493 kts 46°
2026-05-08 12:22 32.33325 -7.16824 25360 ft 496 kts 46°
2026-05-08 12:23 32.35642 -7.13777 25704 ft 499 kts 46°
2026-05-08 12:23 32.37974 -7.10711 26029 ft 502 kts 46°
2026-05-08 12:23 32.40318 -7.07630 26349 ft 506 kts 46°
2026-05-08 12:23 32.42681 -7.04522 26683 ft 509 kts 46°
2026-05-08 12:24 32.45053 -7.01396 26982 ft 513 kts 46°
2026-05-08 12:24 32.47443 -6.98237 27275 ft 516 kts 46°
2026-05-08 12:24 32.49837 -6.95062 27571 ft 519 kts 46°
2026-05-08 12:24 32.52253 -6.91861 27865 ft 522 kts 46°
2026-05-08 12:25 32.54688 -6.88635 28148 ft 525 kts 46°
2026-05-08 12:25 32.57134 -6.85396 28424 ft 528 kts 46°
2026-05-08 12:25 32.59592 -6.82142 28683 ft 530 kts 46°
2026-05-08 12:25 32.62056 -6.78879 28968 ft 533 kts 46°
2026-05-08 12:26 32.64535 -6.75592 29211 ft 535 kts 46°
2026-05-08 12:26 32.67026 -6.72286 29464 ft 538 kts 46°
2026-05-08 12:26 32.69520 -6.68971 29696 ft 540 kts 46°
2026-05-08 12:26 32.72024 -6.65637 29968 ft 543 kts 46°
2026-05-08 12:27 32.74541 -6.62279 30194 ft 544 kts 46°
2026-05-08 12:27 32.77062 -6.58911 30447 ft 545 kts 46°
2026-05-08 12:27 32.79583 -6.55543 30732 ft 545 kts 46°
2026-05-08 12:27 32.82097 -6.52184 31025 ft 544 kts 46°
2026-05-08 12:28 32.84613 -6.48820 31320 ft 543 kts 46°
2026-05-08 12:28 32.87130 -6.45449 31595 ft 543 kts 45°
2026-05-08 12:28 32.89629 -6.42096 31930 ft 541 kts 45°
2026-05-08 12:28 32.92099 -6.38778 32248 ft 541 kts 45°
2026-05-08 12:29 32.94594 -6.35428 32548 ft 540 kts 45°
2026-05-08 12:29 32.97090 -6.32082 32847 ft 539 kts 45°
2026-05-08 12:29 32.99581 -6.28752 33137 ft 539 kts 45°
2026-05-08 12:29 33.02072 -6.25423 33450 ft 539 kts 45°
2026-05-08 12:30 33.04572 -6.22074 33691 ft 541 kts 45°
2026-05-08 12:30 33.07074 -6.18717 33953 ft 541 kts 45°
2026-05-08 12:30 33.09572 -6.15359 34230 ft 540 kts 45°
2026-05-08 12:30 33.12059 -6.12010 34515 ft 539 kts 45°
2026-05-08 12:31 33.14542 -6.08656 34784 ft 538 kts 45°
2026-05-08 12:31 33.17013 -6.05316 35075 ft 537 kts 45°
2026-05-08 12:31 33.19483 -6.01978 35339 ft 535 kts 45°
2026-05-08 12:31 33.21946 -5.98645 35594 ft 534 kts 45°
2026-05-08 12:32 33.24398 -5.95325 35847 ft 533 kts 45°
2026-05-08 12:32 33.26856 -5.91995 36089 ft 532 kts 45°
2026-05-08 12:32 33.29303 -5.88680 36320 ft 531 kts 45°
2026-05-08 12:32 33.31740 -5.85381 36550 ft 530 kts 45°
2026-05-08 12:33 33.34178 -5.82081 36773 ft 529 kts 45°
2026-05-08 12:33 33.36586 -5.78807 36999 ft 528 kts 46°
2026-05-08 12:33 33.39001 -5.75509 37223 ft 527 kts 46°
2026-05-08 12:33 33.41411 -5.72205 37445 ft 526 kts 46°
2026-05-08 12:34 33.43818 -5.68901 37627 ft 525 kts 46°
2026-05-08 12:34 33.46217 -5.65613 37867 ft 523 kts 46°
2026-05-08 12:34 33.51015 -5.59046 37937 ft 523 kts 46°
2026-05-08 12:35 33.55809 -5.52483 37952 ft 523 kts 46°
2026-05-08 12:35 33.60600 -5.45895 37947 ft 525 kts 46°
2026-05-08 12:36 33.65402 -5.39270 37948 ft 526 kts 46°
2026-05-08 12:36 33.70207 -5.32644 37932 ft 526 kts 46°
2026-05-08 12:37 33.75012 -5.26004 37949 ft 527 kts 46°
2026-05-08 12:37 33.79810 -5.19351 37953 ft 527 kts 46°
2026-05-08 12:38 33.84605 -5.12690 37962 ft 526 kts 46°
2026-05-08 12:38 33.89403 -5.06033 37966 ft 527 kts 46°
2026-05-08 12:39 33.94516 -4.99755 37959 ft 521 kts 33°
2026-05-08 12:39 34.00272 -4.94494 37935 ft 519 kts 32°
2026-05-08 12:40 34.06046 -4.89253 37943 ft 520 kts 32°
2026-05-08 12:40 34.11814 -4.83986 37948 ft 520 kts 32°
2026-05-08 12:41 34.17576 -4.78707 37964 ft 520 kts 32°
2026-05-08 12:41 34.23345 -4.73416 37953 ft 521 kts 32°
2026-05-08 12:42 34.29112 -4.68122 37940 ft 521 kts 32°
2026-05-08 12:42 34.34888 -4.62808 37937 ft 521 kts 32°
2026-05-08 12:43 34.40658 -4.57494 37953 ft 522 kts 32°
2026-05-08 12:43 34.46379 -4.52167 37907 ft 522 kts 32°
2026-05-08 12:44 34.52131 -4.46777 37917 ft 523 kts 32°
2026-05-08 12:44 34.57894 -4.41369 37923 ft 523 kts 32°
2026-05-08 12:45 34.63653 -4.35979 37923 ft 523 kts 32°
2026-05-08 12:45 34.69427 -4.30571 37956 ft 524 kts 32°
2026-05-08 12:46 34.75208 -4.25140 37943 ft 525 kts 32°
2026-05-08 12:46 34.80980 -4.19699 37945 ft 524 kts 32°
2026-05-08 12:47 34.86743 -4.14262 37941 ft 525 kts 32°
2026-05-08 12:47 34.92508 -4.08801 37984 ft 525 kts 32°
2026-05-08 12:48 34.98243 -4.03356 37961 ft 526 kts 32°
2026-05-08 12:48 35.04030 -3.97872 37953 ft 527 kts 32°
2026-05-08 12:49 35.09819 -3.92380 37959 ft 527 kts 32°
2026-05-08 12:49 35.15600 -3.86872 37958 ft 527 kts 32°
2026-05-08 12:50 35.21394 -3.81365 37952 ft 528 kts 32°
2026-05-08 12:50 35.27243 -3.75945 37928 ft 528 kts 31°
2026-05-08 12:51 35.36060 -3.67847 37950 ft 529 kts 31°
2026-05-08 12:52 35.41935 -3.62398 37971 ft 529 kts 31°
2026-05-08 12:52 35.50733 -3.54175 37993 ft 530 kts 31°
2026-05-08 12:53 35.56609 -3.48683 37978 ft 531 kts 31°
2026-05-08 12:53 35.62496 -3.43174 37969 ft 531 kts 31°
2026-05-08 12:54 35.68379 -3.37663 37972 ft 532 kts 31°
2026-05-08 12:54 35.74228 -3.32182 38022 ft 532 kts 31°
2026-05-08 12:55 35.80159 -3.26602 38006 ft 533 kts 31°
2026-05-08 12:55 35.85999 -3.21073 37999 ft 533 kts 32°
2026-05-08 12:56 35.91855 -3.15437 38002 ft 534 kts 32°
2026-05-08 12:56 35.97701 -3.09779 38001 ft 534 kts 32°
2026-05-08 12:57 36.03553 -3.04115 37970 ft 534 kts 32°
2026-05-08 12:57 36.09407 -2.98451 37993 ft 534 kts 32°
2026-05-08 12:58 36.15259 -2.92775 38000 ft 534 kts 32°
2026-05-08 12:58 36.21103 -2.87087 38005 ft 534 kts 32°
2026-05-08 12:59 36.26976 -2.81447 38002 ft 533 kts 31°
2026-05-08 12:59 36.31867 -2.76802 38000 ft 533 kts 31°
2026-05-08 13:00 36.37753 -2.71201 37999 ft 533 kts 31°
2026-05-08 13:00 36.43635 -2.65567 37983 ft 534 kts 32°
2026-05-08 13:01 36.49500 -2.59897 38026 ft 534 kts 32°
2026-05-08 13:01 36.55302 -2.54115 38018 ft 535 kts 33°
2026-05-08 13:02 36.61090 -2.48268 38002 ft 535 kts 33°
2026-05-08 13:02 36.66877 -2.42448 37996 ft 535 kts 33°
2026-05-08 13:03 36.72681 -2.36642 38039 ft 535 kts 33°
2026-05-08 13:03 36.78480 -2.30837 37964 ft 534 kts 33°
2026-05-08 13:04 36.84392 -2.25294 37949 ft 526 kts 24°
2026-05-08 13:04 36.90785 -2.20992 37964 ft 521 kts 20°
2026-05-08 13:05 36.97208 -2.16760 37992 ft 522 kts 20°
2026-05-08 13:05 37.03595 -2.12523 38014 ft 521 kts 20°
2026-05-08 13:06 37.10008 -2.08237 38018 ft 521 kts 20°
2026-05-08 13:06 37.16407 -2.03961 38014 ft 521 kts 20°
2026-05-08 13:07 37.22804 -1.99683 38057 ft 521 kts 21°
2026-05-08 13:07 37.29208 -1.95453 38001 ft 518 kts 20°
2026-05-08 13:08 37.35634 -1.91356 38005 ft 518 kts 19°
2026-05-08 13:08 37.42065 -1.87284 37985 ft 518 kts 19°
2026-05-08 13:09 37.48503 -1.83157 38030 ft 519 kts 20°
2026-05-08 13:09 37.54910 -1.79013 38024 ft 518 kts 20°
2026-05-08 13:10 37.61332 -1.74863 38023 ft 518 kts 20°
2026-05-08 13:10 37.67740 -1.70734 38021 ft 517 kts 20°
2026-05-08 13:11 37.74145 -1.66603 37995 ft 514 kts 20°
2026-05-08 13:11 37.80487 -1.62478 37991 ft 511 kts 21°
2026-05-08 13:12 37.86822 -1.58344 37998 ft 511 kts 21°
2026-05-08 13:12 37.93148 -1.54212 38006 ft 512 kts 21°
2026-05-08 13:13 37.99469 -1.50015 38024 ft 512 kts 22°
2026-05-08 13:13 38.05737 -1.45811 38026 ft 512 kts 22°
2026-05-08 13:14 38.12034 -1.41600 38025 ft 512 kts 21°
2026-05-08 13:14 38.18336 -1.37388 38071 ft 511 kts 22°
2026-05-08 13:15 38.24641 -1.33151 38003 ft 507 kts 22°
2026-05-08 13:15 38.30839 -1.28984 38005 ft 507 kts 22°
2026-05-08 13:16 38.37077 -1.24794 38006 ft 507 kts 22°
2026-05-08 13:16 38.43316 -1.20594 38012 ft 507 kts 22°
2026-05-08 13:17 38.49582 -1.16351 38011 ft 507 kts 22°
2026-05-08 13:17 38.55792 -1.12147 37994 ft 508 kts 22°
2026-05-08 13:18 38.62038 -1.07911 38004 ft 508 kts 22°
2026-05-08 13:18 38.68324 -1.03633 38024 ft 509 kts 23°
2026-05-08 13:19 38.74566 -0.99381 38023 ft 508 kts 23°
2026-05-08 13:19 38.80765 -0.95151 38022 ft 508 kts 23°
2026-05-08 13:20 38.87013 -0.90880 38010 ft 508 kts 23°
2026-05-08 13:20 38.93252 -0.86603 38018 ft 507 kts 24°
2026-05-08 13:21 38.99479 -0.82336 38008 ft 507 kts 24°
2026-05-08 13:21 39.05701 -0.78057 38012 ft 507 kts 24°
2026-05-08 13:22 39.11924 -0.73767 37983 ft 508 kts 24°
2026-05-08 13:22 39.18153 -0.69460 38012 ft 508 kts 24°
2026-05-08 13:23 39.24392 -0.65131 38012 ft 508 kts 24°
2026-05-08 13:23 39.30590 -0.60826 38012 ft 508 kts 24°
2026-05-08 13:24 39.36852 -0.56484 38039 ft 509 kts 24°
2026-05-08 13:24 39.43080 -0.52151 38054 ft 508 kts 25°
2026-05-08 13:25 39.49286 -0.47789 38046 ft 508 kts 26°
2026-05-08 13:25 39.55320 -0.43002 38044 ft 510 kts 30°
2026-05-08 13:26 39.61198 -0.37927 38059 ft 510 kts 31°
2026-05-08 13:26 39.67109 -0.32848 38050 ft 509 kts 30°
2026-05-08 13:27 39.73058 -0.27873 38042 ft 508 kts 30°
2026-05-08 13:27 39.79020 -0.22930 38035 ft 508 kts 30°
2026-05-08 13:28 39.84964 -0.17960 38047 ft 508 kts 30°
2026-05-08 13:28 39.90894 -0.12960 38038 ft 507 kts 30°
2026-05-08 13:29 39.96812 -0.07970 38025 ft 506 kts 30°
2026-05-08 13:29 40.02728 -0.02979 38034 ft 506 kts 30°
2026-05-08 13:30 40.08648 0.02024 38038 ft 506 kts 30°
2026-05-08 13:30 40.14557 0.07027 38043 ft 506 kts 30°
2026-05-08 13:31 40.20426 0.12004 38045 ft 505 kts 28°
2026-05-08 13:31 40.26782 0.15686 38068 ft 495 kts 12°
2026-05-08 13:32 40.33406 0.18156 38055 ft 494 kts 12°
2026-05-08 13:32 40.40001 0.20629 38041 ft 493 kts 12°
2026-05-08 13:33 40.46601 0.23113 38039 ft 493 kts 12°
2026-05-08 13:33 40.53184 0.25601 38042 ft 491 kts 13°
2026-05-08 13:34 40.59483 0.29150 38027 ft 495 kts 25°
2026-05-08 13:34 40.65535 0.33331 38030 ft 494 kts 25°
2026-05-08 13:35 40.71619 0.37544 38025 ft 494 kts 25°
2026-05-08 13:35 40.77699 0.41748 38010 ft 493 kts 25°
2026-05-08 13:36 40.83772 0.45955 38013 ft 493 kts 25°
2026-05-08 13:36 40.89844 0.50181 38013 ft 493 kts 25°
2026-05-08 13:37 40.95901 0.54408 38034 ft 491 kts 26°
2026-05-08 13:37 41.01933 0.58623 38027 ft 490 kts 26°
2026-05-08 13:38 41.07967 0.62838 38024 ft 489 kts 26°
2026-05-08 13:38 41.13865 0.67337 38037 ft 490 kts 36°
2026-05-08 13:39 41.19044 0.73213 38024 ft 490 kts 41°
2026-05-08 13:39 41.23307 0.78172 37997 ft 489 kts 41°
2026-05-08 13:40 41.28460 0.84171 38013 ft 489 kts 41°
2026-05-08 13:40 41.33542 0.90109 38011 ft 489 kts 41°
2026-05-08 13:41 41.38647 0.96078 38054 ft 488 kts 41°
2026-05-08 13:41 41.43738 1.02058 38023 ft 488 kts 41°
2026-05-08 13:42 41.48824 1.08049 38021 ft 487 kts 41°
2026-05-08 13:42 41.53896 1.14041 38023 ft 487 kts 41°
2026-05-08 13:43 41.58976 1.20021 38005 ft 486 kts 41°
2026-05-08 13:43 41.64047 1.26005 38010 ft 486 kts 41°
2026-05-08 13:44 41.69118 1.32033 38002 ft 486 kts 41°
2026-05-08 13:44 41.74171 1.38048 38003 ft 486 kts 41°
2026-05-08 13:45 41.79194 1.44041 38013 ft 486 kts 42°
2026-05-08 13:45 41.84251 1.50075 38005 ft 486 kts 42°
2026-05-08 13:46 41.89295 1.56108 37978 ft 486 kts 41°
2026-05-08 13:46 41.94333 1.62151 37989 ft 486 kts 41°
2026-05-08 13:47 41.99376 1.68203 38011 ft 486 kts 42°
2026-05-08 13:47 42.04423 1.74280 38030 ft 486 kts 42°
2026-05-08 13:48 42.09461 1.80354 38022 ft 486 kts 42°
2026-05-08 13:48 42.14493 1.86448 38022 ft 486 kts 42°
2026-05-08 13:49 42.19519 1.92551 38013 ft 486 kts 42°
2026-05-08 13:49 42.24541 1.98664 38018 ft 486 kts 42°
2026-05-08 13:50 42.29532 2.04747 38010 ft 486 kts 42°
2026-05-08 13:50 42.34553 2.10866 38019 ft 486 kts 42°
2026-05-08 13:51 42.39572 2.17000 37998 ft 486 kts 42°
2026-05-08 13:51 42.44710 2.22953 37990 ft 485 kts 34°
2026-05-08 13:52 42.50214 2.28230 38004 ft 485 kts 35°
2026-05-08 13:52 42.55716 2.33507 37978 ft 484 kts 34°
2026-05-08 13:53 42.61214 2.38805 37974 ft 484 kts 34°
2026-05-08 13:53 42.66698 2.44109 37969 ft 484 kts 34°
2026-05-08 13:54 42.72197 2.49430 37967 ft 484 kts 34°
2026-05-08 13:54 42.77650 2.54723 37953 ft 484 kts 34°
2026-05-08 13:55 42.83125 2.60048 37978 ft 484 kts 34°
2026-05-08 13:56 42.91347 2.68052 37958 ft 484 kts 34°
2026-05-08 13:56 42.96821 2.73399 37964 ft 484 kts 34°
2026-05-08 13:57 43.02294 2.78765 38001 ft 484 kts 34°
2026-05-08 13:57 43.07754 2.84131 38008 ft 483 kts 34°
2026-05-08 13:58 43.13207 2.89504 38007 ft 483 kts 34°
2026-05-08 13:58 43.18658 2.94879 38022 ft 482 kts 34°
2026-05-08 13:59 43.24099 3.00254 38041 ft 481 kts 34°
2026-05-08 13:59 43.29517 3.05623 38042 ft 481 kts 34°
2026-05-08 14:00 43.34935 3.11008 38045 ft 480 kts 34°
2026-05-08 14:00 43.40343 3.16381 38051 ft 479 kts 34°
2026-05-08 14:01 43.45743 3.21761 38054 ft 479 kts 34°
2026-05-08 14:01 43.51131 3.27152 38051 ft 478 kts 34°
2026-05-08 14:02 43.56514 3.32560 38051 ft 478 kts 34°
2026-05-08 14:02 43.61854 3.37920 38063 ft 478 kts 34°
2026-05-08 14:03 43.67221 3.43325 38061 ft 477 kts 34°
2026-05-08 14:03 43.72582 3.48735 38052 ft 477 kts 34°
2026-05-08 14:04 43.77942 3.54155 38063 ft 476 kts 34°
2026-05-08 14:04 43.83306 3.59591 38067 ft 476 kts 34°
2026-05-08 14:05 43.88642 3.65013 38056 ft 476 kts 34°
2026-05-08 14:05 43.93983 3.70456 38044 ft 475 kts 34°
2026-05-08 14:06 43.99315 3.75899 38067 ft 475 kts 34°
2026-05-08 14:06 44.04604 3.81308 38036 ft 474 kts 34°
2026-05-08 14:07 44.09912 3.86757 38037 ft 474 kts 34°
2026-05-08 14:07 44.15218 3.92207 38041 ft 473 kts 34°
2026-05-08 14:08 44.20514 3.97647 38036 ft 473 kts 33°
2026-05-08 14:08 44.25810 4.03106 38031 ft 472 kts 34°
2026-05-08 14:09 44.31088 4.08576 38025 ft 472 kts 34°
2026-05-08 14:09 44.35976 4.14759 38025 ft 474 kts 41°
2026-05-08 14:10 44.40714 4.21120 38017 ft 474 kts 41°
2026-05-08 14:10 44.45474 4.27527 38015 ft 475 kts 41°
2026-05-08 14:11 44.50258 4.33985 37819 ft 475 kts 41°
2026-05-08 14:11 44.52610 4.37172 37534 ft 475 kts 41°
2026-05-08 14:11 44.54989 4.40395 37280 ft 476 kts 41°
2026-05-08 14:11 44.57403 4.43667 37008 ft 476 kts 41°
2026-05-08 14:12 44.59752 4.46854 36744 ft 477 kts 40°
2026-05-08 14:12 44.62143 4.50100 36482 ft 478 kts 41°
2026-05-08 14:12 44.64536 4.53352 36203 ft 479 kts 41°
2026-05-08 14:12 44.66934 4.56612 35972 ft 480 kts 41°
2026-05-08 14:13 44.69327 4.59872 35704 ft 481 kts 40°
2026-05-08 14:13 44.71727 4.63149 35450 ft 482 kts 40°
2026-05-08 14:13 44.74138 4.66445 35204 ft 482 kts 40°
2026-05-08 14:13 44.76539 4.69732 34956 ft 483 kts 40°
2026-05-08 14:14 44.78949 4.73037 34712 ft 484 kts 40°
2026-05-08 14:14 44.81360 4.76349 34470 ft 484 kts 40°
2026-05-08 14:14 44.83781 4.79672 34229 ft 485 kts 40°
2026-05-08 14:14 44.86192 4.82984 33989 ft 486 kts 40°
2026-05-08 14:15 44.88619 4.86318 33478 ft 486 kts 40°
2026-05-08 14:15 44.91053 4.89668 32279 ft 491 kts 40°
2026-05-08 14:15 44.93499 4.93045 31176 ft 492 kts 40°
2026-05-08 14:15 44.95949 4.96436 30052 ft 493 kts 40°
2026-05-08 14:16 44.98379 4.99806 29291 ft 484 kts 40°
2026-05-08 14:16 45.00760 5.03117 28528 ft 476 kts 40°
2026-05-08 14:16 45.03106 5.06380 27796 ft 470 kts 40°
2026-05-08 14:16 45.05420 5.09601 27054 ft 463 kts 41°
2026-05-08 14:17 45.07699 5.12774 26351 ft 458 kts 41°
2026-05-08 14:17 45.10076 5.15705 25662 ft 449 kts 33°
2026-05-08 14:17 45.12685 5.18041 25005 ft 439 kts 24°
2026-05-08 14:17 45.15401 5.19965 24360 ft 434 kts 24°
2026-05-08 14:18 45.18085 5.21864 23726 ft 430 kts 24°
2026-05-08 14:18 45.20746 5.23752 23048 ft 425 kts 24°
2026-05-08 14:18 45.22485 5.24990 22673 ft 420 kts 24°
2026-05-08 14:18 45.25081 5.26840 22110 ft 415 kts 25°
2026-05-08 14:19 45.27643 5.28666 21589 ft 409 kts 25°
2026-05-08 14:19 45.30175 5.30471 21062 ft 405 kts 25°
2026-05-08 14:19 45.32674 5.32254 20569 ft 400 kts 25°
2026-05-08 14:19 45.35150 5.34029 20066 ft 397 kts 25°
2026-05-08 14:20 45.37603 5.35790 19594 ft 393 kts 25°
2026-05-08 14:20 45.40039 5.37535 19091 ft 390 kts 25°
2026-05-08 14:20 45.42461 5.39266 18600 ft 388 kts 26°
2026-05-08 14:20 45.44865 5.40984 18064 ft 386 kts 26°
2026-05-08 14:21 45.47256 5.42698 17528 ft 383 kts 27°
2026-05-08 14:21 45.49531 5.44743 17003 ft 380 kts 38°
2026-05-08 14:21 45.51497 5.47171 16482 ft 378 kts 42°
2026-05-08 14:21 45.53448 5.49669 15963 ft 376 kts 42°
2026-05-08 14:22 45.55461 5.52034 15426 ft 374 kts 34°
2026-05-08 14:22 45.57718 5.53836 15093 ft 367 kts 23°
2026-05-08 14:22 45.60050 5.55146 14962 ft 354 kts 21°
2026-05-08 14:22 45.62301 5.56401 14835 ft 342 kts 21°
2026-05-08 14:23 45.64477 5.57628 14711 ft 331 kts 21°
2026-05-08 14:23 45.66596 5.58829 14501 ft 324 kts 21°
2026-05-08 14:23 45.68621 5.60208 14316 ft 323 kts 28°
2026-05-08 14:23 45.70595 5.61760 13921 ft 323 kts 29°
2026-05-08 14:24 45.72564 5.63321 13505 ft 323 kts 29°
2026-05-08 14:24 45.74514 5.64869 13199 ft 318 kts 29°
2026-05-08 14:24 45.76452 5.66404 12774 ft 318 kts 29°
2026-05-08 14:24 45.78386 5.67937 12398 ft 316 kts 29°
2026-05-08 14:25 45.80304 5.69457 12040 ft 314 kts 29°
2026-05-08 14:25 45.82217 5.70973 11662 ft 313 kts 29°
2026-05-08 14:25 45.84117 5.72483 11284 ft 311 kts 29°
2026-05-08 14:25 45.86008 5.73984 10902 ft 310 kts 29°
2026-05-08 14:26 45.87919 5.75392 10537 ft 309 kts 21°
2026-05-08 14:26 45.89987 5.76222 10176 ft 306 kts 10°
2026-05-08 14:26 45.92074 5.76798 9787 ft 306 kts 10°
2026-05-08 14:26 45.94158 5.77376 9381 ft 304 kts 10°
2026-05-08 14:27 45.96234 5.77952 8994 ft 301 kts 11°
2026-05-08 14:27 45.98270 5.78519 8754 ft 294 kts 10°
2026-05-08 14:27 46.00237 5.79070 8618 ft 282 kts 10°
2026-05-08 14:27 46.02099 5.79766 8481 ft 270 kts 25°
2026-05-08 14:28 46.03577 5.81284 8263 ft 249 kts 45°
2026-05-08 14:28 46.04754 5.83041 7810 ft 252 kts 47°
2026-05-08 14:28 46.05984 5.84890 7300 ft 259 kts 46°
2026-05-08 14:28 46.07211 5.86679 6773 ft 244 kts 45°
2026-05-08 14:29 46.08374 5.88364 6265 ft 232 kts 45°
2026-05-08 14:29 46.09488 5.89983 5735 ft 223 kts 45°
2026-05-08 14:29 46.10564 5.91548 5212 ft 217 kts 44°
2026-05-08 14:29 46.11620 5.93085 4641 ft 213 kts 44°
2026-05-08 14:30 46.12629 5.94557 4295 ft 199 kts 44°
2026-05-08 14:30 46.13569 5.95926 3989 ft 186 kts 44°
2026-05-08 14:30 46.14456 5.97220 3736 ft 178 kts 44°
2026-05-08 14:30 46.15311 5.98467 3510 ft 172 kts 44°
2026-05-08 14:31 46.16119 5.99647 3312 ft 159 kts 43°
2026-05-08 14:31 46.16872 6.00747 3096 ft 150 kts 44°
2026-05-08 14:31 46.17595 6.01803 2871 ft 146 kts 44°
2026-05-08 14:32 46.19009 6.03866 2490 ft 143 kts 44°
2026-05-08 14:32 46.19701 6.04879 2283 ft 141 kts 45°
2026-05-08 14:32 46.20383 6.05875 2102 ft 138 kts 46°
2026-05-08 14:32 46.21053 6.06857 1917 ft 136 kts 46°
2026-05-08 14:33 46.21713 6.07824 1737 ft 135 kts 46°
2026-05-08 14:33 46.22368 6.08783 1571 ft 133 kts 47°
2026-05-08 14:33 46.23015 6.09733 1418 ft 131 kts 46°
2026-05-08 14:33 46.23554 6.10528 1387 ft 86 kts 45°
2026-05-08 14:34 46.23817 6.10915 1382 ft 27 kts 46°
2026-05-08 14:34 46.23839 6.11067 1378 ft 17 kts 157°
2026-05-08 14:34 46.23725 6.11083 1386 ft 15 kts 189°
2026-05-08 14:34 46.23662 6.11016 1387 ft 9 kts 224°
2026-05-08 14:35 46.23620 6.10955 1389 ft 8 kts 225°
2026-05-08 14:35 46.23569 6.10880 1391 ft 12 kts 226°
2026-05-08 14:35 46.23465 6.10727 1396 ft 24 kts 225°
2026-05-08 14:35 46.23357 6.10581 1392 ft 22 kts 224°
2026-05-08 14:36 46.23259 6.10442 1396 ft 10 kts 209°
2026-05-08 14:36 46.23192 6.10437 1396 ft 9 kts 180°
2026-05-08 14:36 46.23161 6.10437 1393 ft 2 kts 180°
2026-05-08 14:36 46.23160 6.10437 1393 ft 0 kts 180°